Time,TemperatureF,DewpointF,PressureIn,WindDirection,WindDirectionDegrees,WindSpeedMPH,WindSpeedGustMPH,Humidity,HourlyPrecipIn,Conditions,Clouds,dailyrainin,SoftwareType,DateUTC
2013-03-26 00:02:00,48.0,-99.9,30.03,West,278,8.0,11.0,-999,-99.99,,,-99.99,,2013-03-26 07:02:00,
2013-03-26 00:12:00,49.0,-99.9,30.03,WNW,282,9.0,13.0,-999,-99.99,,,-99.99,,2013-03-26 07:12:00,
2013-03-26 00:22:00,49.0,-99.9,30.03,WNW,287,9.0,11.0,-999,-99.99,,,-99.99,,2013-03-26 07:22:00,
2013-03-26 00:33:00,48.0,-99.9,30.03,West,279,8.0,10.0,-999,-99.99,,,-99.99,,2013-03-26 07:33:00,
2013-03-26 00:43:00,49.0,-99.9,30.03,West,281,9.0,12.0,-999,-99.99,,,-99.99,,2013-03-26 07:43:00,
2013-03-26 00:53:00,49.0,-99.9,30.03,West,281,9.0,13.0,-999,-99.99,,,-99.99,,2013-03-26 07:53:00,
2013-03-26 01:02:00,49.0,-99.9,30.03,WNW,283,11.0,13.0,-999,-99.99,,,-99.99,,2013-03-26 08:02:00,
2013-03-26 01:13:00,49.0,-99.9,30.03,WNW,282,10.0,12.0,-999,-99.99,,,-99.99,,2013-03-26 08:13:00,
2013-03-26 01:22:00,48.0,-99.9,30.03,West,280,11.0,16.0,-999,-99.99,,,-99.99,,2013-03-26 08:22:00,
2013-03-26 01:32:00,49.0,-99.9,30.03,WNW,289,10.0,14.0,-999,-99.99,,,-99.99,,2013-03-26 08:32:00,
2013-03-26 01:42:00,49.0,-99.9,30.03,WNW,282,9.0,14.0,-999,-99.99,,,-99.99,,2013-03-26 08:42:00,
2013-03-26 01:52:00,49.0,-99.9,30.02,WNW,293,11.0,13.0,-999,-99.99,,,-99.99,,2013-03-26 08:52:00,
2013-03-26 02:02:00,48.0,-99.9,30.02,WNW,283,10.0,15.0,-999,-99.99,,,-99.99,,2013-03-26 09:02:00,
2013-03-26 02:12:00,48.0,-99.9,30.02,WNW,282,12.0,15.0,-999,-99.99,,,-99.99,,2013-03-26 09:12:00,
2013-03-26 02:22:00,48.0,-99.9,30.02,WNW,283,11.0,14.0,-999,-99.99,,,-99.99,,2013-03-26 09:22:00,
2013-03-26 02:33:00,48.0,-99.9,30.01,WNW,288,13.0,17.0,-999,-99.99,,,-99.99,,2013-03-26 09:33:00,
2013-03-26 02:43:00,48.0,-99.9,30.01,WNW,288,13.0,18.0,-999,-99.99,,,-99.99,,2013-03-26 09:43:00,
2013-03-26 02:52:00,48.0,-99.9,30.01,WNW,289,11.0,21.0,-999,-99.99,,,-99.99,,2013-03-26 09:52:00,
2013-03-26 03:03:00,48.0,-99.9,30.01,WNW,295,11.0,17.0,-999,-99.99,,,-99.99,,2013-03-26 10:03:00,
2013-03-26 03:12:00,48.0,-99.9,30.01,WNW,295,11.0,15.0,-999,-99.99,,,-99.99,,2013-03-26 10:12:00,
2013-03-26 03:23:00,48.0,-99.9,30.01,WNW,282,9.0,16.0,-999,-99.99,,,-99.99,,2013-03-26 10:23:00,
2013-03-26 03:33:00,48.0,-99.9,30.00,WNW,294,11.0,15.0,-999,-99.99,,,-99.99,,2013-03-26 10:33:00,
2013-03-26 03:43:00,48.0,-99.9,30.00,WNW,287,6.0,13.0,-999,-99.99,,,-99.99,,2013-03-26 10:43:00,
2013-03-26 03:53:00,48.0,-99.9,30.00,West,274,7.0,12.0,-999,-99.99,,,-99.99,,2013-03-26 10:53:00,
2013-03-26 04:03:00,48.0,-99.9,30.00,West,272,8.0,10.0,-999,-99.99,,,-99.99,,2013-03-26 11:03:00,
2013-03-26 04:12:00,48.0,-99.9,30.00,West,278,6.0,11.0,-999,-99.99,,,-99.99,,2013-03-26 11:12:00,
2013-03-26 04:23:00,48.0,-99.9,30.00,West,270,8.0,10.0,-999,-99.99,,,-99.99,,2013-03-26 11:23:00,
2013-03-26 04:33:00,48.0,-99.9,30.00,West,280,8.0,10.0,-999,-99.99,,,-99.99,,2013-03-26 11:33:00,
2013-03-26 04:43:00,48.0,-99.9,30.00,West,278,8.0,12.0,-999,-99.99,,,-99.99,,2013-03-26 11:43:00,
2013-03-26 04:52:00,48.0,-99.9,30.00,West,277,8.0,11.0,-999,-99.99,,,-99.99,,2013-03-26 11:52:00,
2013-03-26 05:03:00,48.0,-99.9,30.00,West,277,8.0,11.0,-999,-99.99,,,-99.99,,2013-03-26 12:03:00,
2013-03-26 05:12:00,48.0,-99.9,30.00,West,269,5.0,8.0,-999,-99.99,,,-99.99,,2013-03-26 12:12:00,
2013-03-26 05:22:00,47.0,-99.9,30.00,West,263,5.0,9.0,-999,-99.99,,,-99.99,,2013-03-26 12:22:00,
2013-03-26 05:32:00,47.0,-99.9,30.00,West,268,6.0,8.0,-999,-99.99,,,-99.99,,2013-03-26 12:32:00,
2013-03-26 05:43:00,47.0,-99.9,30.00,West,270,6.0,8.0,-999,-99.99,,,-99.99,,2013-03-26 12:43:00,
2013-03-26 05:52:00,47.0,-99.9,30.00,West,277,6.0,9.0,-999,-99.99,,,-99.99,,2013-03-26 12:52:00,
2013-03-26 06:03:00,47.0,-99.9,30.00,West,261,4.0,7.0,-999,-99.99,,,-99.99,,2013-03-26 13:03:00,
2013-03-26 06:12:00,47.0,-99.9,30.00,West,264,5.0,6.0,-999,-99.99,,,-99.99,,2013-03-26 13:12:00,
2013-03-26 06:23:00,47.0,-99.9,30.00,West,268,5.0,7.0,-999,-99.99,,,-99.99,,2013-03-26 13:23:00,
2013-03-26 06:32:00,48.0,-99.9,30.00,West,281,5.0,9.0,-999,-99.99,,,-99.99,,2013-03-26 13:32:00,
2013-03-26 06:42:00,48.0,-99.9,30.00,WNW,287,5.0,8.0,-999,-99.99,,,-99.99,,2013-03-26 13:42:00,
2013-03-26 06:52:00,48.0,-99.9,30.00,WNW,285,5.0,7.0,-999,-99.99,,,-99.99,,2013-03-26 13:52:00,
2013-03-26 07:02:00,48.0,-99.9,30.01,West,276,5.0,7.0,-999,-99.99,,,-99.99,,2013-03-26 14:02:00,
2013-03-26 07:12:00,48.0,-99.9,30.01,West,267,4.0,6.0,-999,-99.99,,,-99.99,,2013-03-26 14:12:00,
2013-03-26 07:23:00,48.0,-99.9,30.01,West,268,4.0,6.0,-999,-99.99,,,-99.99,,2013-03-26 14:23:00,
2013-03-26 07:33:00,48.0,-99.9,30.01,West,262,4.0,6.0,-999,-99.99,,,-99.99,,2013-03-26 14:33:00,
2013-03-26 07:42:00,48.0,-99.9,30.01,West,271,5.0,6.0,-999,-99.99,,,-99.99,,2013-03-26 14:42:00,
2013-03-26 07:53:00,48.0,-99.9,30.01,West,278,4.0,6.0,-999,-99.99,,,-99.99,,2013-03-26 14:53:00,
2013-03-26 08:02:00,49.0,-99.9,30.01,WNW,296,4.0,6.0,-999,-99.99,,,-99.99,,2013-03-26 15:02:00,
2013-03-26 08:12:00,49.0,-99.9,30.01,NW,304,4.0,5.0,-999,-99.99,,,-99.99,,2013-03-26 15:12:00,
2013-03-26 08:22:00,49.0,-99.9,30.01,WNW,300,6.0,8.0,-999,-99.99,,,-99.99,,2013-03-26 15:22:00,
2013-03-26 08:33:00,49.0,-99.9,30.01,WNW,290,6.0,8.0,-999,-99.99,,,-99.99,,2013-03-26 15:33:00,
2013-03-26 08:43:00,49.0,-99.9,30.01,NW,304,6.0,7.0,-999,-99.99,,,-99.99,,2013-03-26 15:43:00,
2013-03-26 08:53:00,49.0,-99.9,30.01,WNW,303,6.0,8.0,-999,-99.99,,,-99.99,,2013-03-26 15:53:00,
2013-03-26 09:03:00,49.0,-99.9,30.01,WNW,301,7.0,9.0,-999,-99.99,,,-99.99,,2013-03-26 16:03:00,
2013-03-26 09:13:00,49.0,-99.9,30.01,NW,309,6.0,8.0,-999,-99.99,,,-99.99,,2013-03-26 16:13:00,
2013-03-26 09:23:00,49.0,-99.9,30.02,NW,304,7.0,9.0,-999,-99.99,,,-99.99,,2013-03-26 16:23:00,
2013-03-26 09:33:00,49.0,-99.9,30.02,NW,317,7.0,9.0,-999,-99.99,,,-99.99,,2013-03-26 16:33:00,
2013-03-26 09:43:00,49.0,-99.9,30.02,NW,319,7.0,9.0,-999,-99.99,,,-99.99,,2013-03-26 16:43:00,
2013-03-26 09:54:00,49.0,-99.9,30.02,NW,319,6.0,9.0,-999,-99.99,,,-99.99,,2013-03-26 16:54:00,
2013-03-26 10:03:00,49.0,-99.9,30.02,NNW,328,6.0,9.0,-999,-99.99,,,-99.99,,2013-03-26 17:03:00,
2013-03-26 10:12:00,49.0,-99.9,30.02,NW,320,8.0,10.0,-999,-99.99,,,-99.99,,2013-03-26 17:12:00,
2013-03-26 10:23:00,49.0,-99.9,30.02,NNW,331,7.0,10.0,-999,-99.99,,,-99.99,,2013-03-26 17:23:00,
2013-03-26 10:33:00,50.0,-99.9,30.02,NNW,331,7.0,10.0,-999,-99.99,,,-99.99,,2013-03-26 17:33:00,
2013-03-26 10:42:00,50.0,-99.9,30.02,NNW,332,6.0,10.0,-999,-99.99,,,-99.99,,2013-03-26 17:42:00,
2013-03-26 10:53:00,50.0,-99.9,30.03,NNW,330,7.0,10.0,-999,-99.99,,,-99.99,,2013-03-26 17:53:00,
2013-03-26 11:03:00,50.0,-99.9,30.03,NW,321,6.0,9.0,-999,-99.99,,,-99.99,,2013-03-26 18:03:00,
2013-03-26 11:12:00,50.0,-99.9,30.03,NW,323,5.0,8.0,-999,-99.99,,,-99.99,,2013-03-26 18:12:00,
2013-03-26 11:23:00,50.0,-99.9,30.03,NW,312,6.0,9.0,-999,-99.99,,,-99.99,,2013-03-26 18:23:00,
2013-03-26 11:34:00,50.0,-99.9,30.03,NNW,328,6.0,8.0,-999,-99.99,,,-99.99,,2013-03-26 18:34:00,
2013-03-26 11:42:00,50.0,-99.9,30.03,WNW,303,8.0,10.0,-999,-99.99,,,-99.99,,2013-03-26 18:42:00,
2013-03-26 11:53:00,51.0,-99.9,30.03,NW,307,6.0,9.0,-999,-99.99,,,-99.99,,2013-03-26 18:53:00,
2013-03-26 12:03:00,50.0,-99.9,30.04,WNW,299,8.0,11.0,-999,-99.99,,,-99.99,,2013-03-26 19:03:00,
2013-03-26 12:12:00,51.0,-99.9,30.04,NW,306,5.0,9.0,-999,-99.99,,,-99.99,,2013-03-26 19:12:00,
2013-03-26 12:23:00,51.0,-99.9,30.04,NW,306,5.0,9.0,-999,-99.99,,,-99.99,,2013-03-26 19:23:00,
2013-03-26 12:33:00,51.0,-99.9,30.04,NW,306,5.0,9.0,-999,-99.99,,,-99.99,,2013-03-26 19:33:00,
2013-03-26 12:53:00,51.0,-99.9,30.03,WNW,292,7.0,11.0,-999,-99.99,,,-99.99,,2013-03-26 19:53:00,
2013-03-26 13:02:00,51.0,-99.9,30.03,WNW,292,7.0,9.0,-999,-99.99,,,-99.99,,2013-03-26 20:02:00,
2013-03-26 13:13:00,51.0,-99.9,30.03,WNW,292,6.0,10.0,-999,-99.99,,,-99.99,,2013-03-26 20:13:00,
2013-03-26 13:23:00,52.0,-99.9,30.03,WNW,303,5.0,9.0,-999,-99.99,,,-99.99,,2013-03-26 20:23:00,
2013-03-26 13:33:00,52.0,-99.9,30.03,West,268,4.0,10.0,-999,-99.99,,,-99.99,,2013-03-26 20:33:00,
2013-03-26 13:43:00,52.0,-99.9,30.03,West,276,5.0,9.0,-999,-99.99,,,-99.99,,2013-03-26 20:43:00,
2013-03-26 13:53:00,52.0,-99.9,30.03,WNW,302,8.0,11.0,-999,-99.99,,,-99.99,,2013-03-26 20:53:00,
2013-03-26 14:02:00,52.0,-99.9,30.02,WNW,288,7.0,10.0,-999,-99.99,,,-99.99,,2013-03-26 21:02:00,
2013-03-26 14:13:00,52.0,-99.9,30.02,West,278,8.0,10.0,-999,-99.99,,,-99.99,,2013-03-26 21:13:00,
2013-03-26 14:23:00,53.0,-99.9,30.02,West,281,6.0,9.0,-999,-99.99,,,-99.99,,2013-03-26 21:23:00,
2013-03-26 14:33:00,52.0,-99.9,30.02,NW,306,7.0,11.0,-999,-99.99,,,-99.99,,2013-03-26 21:33:00,
2013-03-26 14:43:00,52.0,-99.9,30.01,NW,310,7.0,11.0,-999,-99.99,,,-99.99,,2013-03-26 21:43:00,
2013-03-26 14:53:00,53.0,-99.9,30.01,NW,312,5.0,7.0,-999,-99.99,,,-99.99,,2013-03-26 21:53:00,
2013-03-26 15:02:00,53.0,-99.9,30.01,NW,318,5.0,8.0,-999,-99.99,,,-99.99,,2013-03-26 22:02:00,
2013-03-26 15:12:00,53.0,-99.9,30.01,NW,322,5.0,8.0,-999,-99.99,,,-99.99,,2013-03-26 22:12:00,
2013-03-26 15:23:00,53.0,-99.9,30.01,WNW,285,8.0,14.0,-999,-99.99,,,-99.99,,2013-03-26 22:23:00,
2013-03-26 15:33:00,53.0,-99.9,30.01,West,275,8.0,11.0,-999,-99.99,,,-99.99,,2013-03-26 22:33:00,
2013-03-26 15:43:00,53.0,-99.9,30.01,West,271,10.0,12.0,-999,-99.99,,,-99.99,,2013-03-26 22:43:00,
2013-03-26 15:53:00,53.0,-99.9,30.00,West,279,10.0,11.0,-999,-99.99,,,-99.99,,2013-03-26 22:53:00,
2013-03-26 16:01:00,53.0,-99.9,30.01,WNW,282,9.0,14.0,-999,-99.99,,,-99.99,,2013-03-26 23:01:00,
2013-03-26 16:11:00,52.0,-99.9,30.01,WNW,282,13.0,16.0,-999,-99.99,,,-99.99,,2013-03-26 23:11:00,
2013-03-26 16:23:00,52.0,-99.9,30.00,WNW,282,10.0,13.0,-999,-99.99,,,-99.99,,2013-03-26 23:23:00,
2013-03-26 16:33:00,52.0,-99.9,30.00,WNW,285,9.0,13.0,-999,-99.99,,,-99.99,,2013-03-26 23:33:00,
2013-03-26 16:43:00,52.0,-99.9,30.00,WNW,284,8.0,13.0,-999,-99.99,,,-99.99,,2013-03-26 23:43:00,
2013-03-26 16:53:00,52.0,-99.9,30.00,West,278,9.0,12.0,-999,-99.99,,,-99.99,,2013-03-26 23:53:00,
2013-03-26 17:02:00,52.0,-99.9,30.00,WNW,285,10.0,12.0,-999,-99.99,,,-99.99,,2013-03-27 00:02:00,
2013-03-26 17:12:00,52.0,-99.9,29.99,West,281,10.0,13.0,-999,-99.99,,,-99.99,,2013-03-27 00:12:00,
2013-03-26 17:22:00,52.0,-99.9,29.99,West,278,9.0,13.0,-999,-99.99,,,-99.99,,2013-03-27 00:22:00,
2013-03-26 17:33:00,51.0,-99.9,29.99,West,279,9.0,11.0,-999,-99.99,,,-99.99,,2013-03-27 00:33:00,
2013-03-26 17:42:00,52.0,-99.9,29.99,WNW,290,10.0,12.0,-999,-99.99,,,-99.99,,2013-03-27 00:42:00,
2013-03-26 17:52:00,52.0,-99.9,29.99,WNW,289,10.0,12.0,-999,-99.99,,,-99.99,,2013-03-27 00:52:00,
2013-03-26 18:02:00,52.0,-99.9,29.99,WNW,288,8.0,11.0,-999,-99.99,,,-99.99,,2013-03-27 01:02:00,
2013-03-26 18:12:00,52.0,-99.9,29.98,WNW,295,8.0,10.0,-999,-99.99,,,-99.99,,2013-03-27 01:12:00,
2013-03-26 18:23:00,52.0,-99.9,29.98,WNW,291,7.0,9.0,-999,-99.99,,,-99.99,,2013-03-27 01:23:00,
2013-03-26 18:33:00,52.0,-99.9,29.98,West,276,7.0,10.0,-999,-99.99,,,-99.99,,2013-03-27 01:33:00,
2013-03-26 18:43:00,52.0,-99.9,29.98,WNW,290,7.0,11.0,-999,-99.99,,,-99.99,,2013-03-27 01:43:00,
2013-03-26 18:53:00,52.0,-99.9,29.98,West,280,7.0,9.0,-999,-99.99,,,-99.99,,2013-03-27 01:53:00,
2013-03-26 19:03:00,52.0,-99.9,29.98,WNW,284,8.0,10.0,-999,-99.99,,,-99.99,,2013-03-27 02:03:00,
2013-03-26 19:12:00,52.0,-99.9,29.98,WNW,290,8.0,11.0,-999,-99.99,,,-99.99,,2013-03-27 02:12:00,
2013-03-26 19:22:00,52.0,-99.9,29.98,West,280,6.0,8.0,-999,-99.99,,,-99.99,,2013-03-27 02:22:00,
2013-03-26 19:32:00,51.0,-99.9,29.99,West,275,4.0,8.0,-999,-99.99,,,-99.99,,2013-03-27 02:32:00,
2013-03-26 19:43:00,51.0,-99.9,29.99,West,268,6.0,6.0,-999,-99.99,,,-99.99,,2013-03-27 02:43:00,
2013-03-26 19:53:00,51.0,-99.9,29.99,West,269,5.0,6.0,-999,-99.99,,,-99.99,,2013-03-27 02:53:00,
2013-03-26 20:02:00,50.0,-99.9,29.99,West,268,4.0,5.0,-999,-99.99,,,-99.99,,2013-03-27 03:02:00,
2013-03-26 20:12:00,50.0,-99.9,29.99,West,261,4.0,5.0,-999,-99.99,,,-99.99,,2013-03-27 03:12:00,
2013-03-26 20:22:00,50.0,-99.9,29.99,West,262,4.0,5.0,-999,-99.99,,,-99.99,,2013-03-27 03:22:00,
2013-03-26 20:33:00,50.0,-99.9,29.99,West,263,4.0,5.0,-999,-99.99,,,-99.99,,2013-03-27 03:33:00,
2013-03-26 20:43:00,50.0,-99.9,29.99,SW,235,2.0,4.0,-999,-99.99,,,-99.99,,2013-03-27 03:43:00,
2013-03-26 20:53:00,50.0,-99.9,29.99,West,266,2.0,3.0,-999,-99.99,,,-99.99,,2013-03-27 03:53:00,
2013-03-26 21:03:00,50.0,-99.9,29.99,West,264,4.0,5.0,-999,-99.99,,,-99.99,,2013-03-27 04:03:00,
2013-03-26 21:13:00,50.0,-99.9,30.00,West,261,4.0,4.0,-999,-99.99,,,-99.99,,2013-03-27 04:13:00,
2013-03-26 21:23:00,50.0,-99.9,30.00,WSW,257,2.0,4.0,-999,-99.99,,,-99.99,,2013-03-27 04:23:00,
2013-03-26 21:33:00,50.0,-99.9,30.00,WSW,255,2.0,4.0,-999,-99.99,,,-99.99,,2013-03-27 04:33:00,
2013-03-26 21:43:00,50.0,-99.9,30.00,West,267,3.0,4.0,-999,-99.99,,,-99.99,,2013-03-27 04:43:00,
2013-03-26 21:53:00,50.0,-99.9,30.00,WSW,257,4.0,4.0,-999,-99.99,,,-99.99,,2013-03-27 04:53:00,
2013-03-26 22:03:00,51.0,-99.9,30.00,West,268,4.0,4.0,-999,-99.99,,,-99.99,,2013-03-27 05:03:00,
2013-03-26 22:13:00,51.0,-99.9,30.00,West,268,3.0,4.0,-999,-99.99,,,-99.99,,2013-03-27 05:13:00,
2013-03-26 22:23:00,51.0,-99.9,30.00,West,271,2.0,4.0,-999,-99.99,,,-99.99,,2013-03-27 05:23:00,
2013-03-26 22:33:00,50.0,-99.9,30.00,North,354,2.0,2.0,-999,-99.99,,,-99.99,,2013-03-27 05:33:00,
2013-03-26 22:42:00,50.0,-99.9,30.00,NNW,333,-999.0,1.0,-999,-99.99,,,-99.99,,2013-03-27 05:42:00,
2013-03-26 22:53:00,50.0,-99.9,30.00,North,-999,-999.0,-999.0,-999,-99.99,,,-99.99,,2013-03-27 05:53:00,
2013-03-26 23:02:00,50.0,-99.9,30.00,SSW,212,-999.0,0.0,-999,-99.99,,,-99.99,,2013-03-27 06:02:00,
2013-03-26 23:12:00,49.0,-99.9,30.00,North,-999,-999.0,-999.0,-999,-99.99,,,-99.99,,2013-03-27 06:12:00,
2013-03-26 23:23:00,49.0,-99.9,30.00,North,-999,-999.0,-999.0,-999,-99.99,,,-99.99,,2013-03-27 06:23:00,
2013-03-26 23:32:00,49.0,-99.9,30.00,North,-999,-999.0,-999.0,-999,-99.99,,,-99.99,,2013-03-27 06:32:00,
2013-03-26 23:43:00,50.0,-99.9,30.00,SSE,164,0.0,1.0,-999,-99.99,,,-99.99,,2013-03-27 06:43:00,
2013-03-26 23:53:00,49.0,-99.9,30.00,North,-999,-999.0,-999.0,-999,-99.99,,,-99.99,,2013-03-27 06:53:00,